Powrót do katalogu

STARLINK-4655

AktywnyŁącznośćVLEO
NORAD 53613·PAYLOAD·🇺🇸 United States

Wystrzelony Aug 28, 2022 z Cape Canaveral Space Force Station

Loading…

Następne Przeloty (najbliższe 24 godziny)

TLE

ŚwieżeSource: CelesTrak SupGP

Epoka: Sep 14, 2026, 22:13 UTC

1 53613C 22104AB  26257.92618056  .00025557  00000+0  73139-3 0  2572
2 53613  53.1581  94.0382 0001402  90.7276 321.3571 15.35378370    12

Śledź STARLINK-4655 w czasie rzeczywistym z AllMySat

Download on the App Store